Location: Albia
(42.7034°N, 73.6518°W)
Time: 13:41:02
(UTC+00:00)

Daily predictions for brighter satellites

Satellite Brightness Start Highest point End
(mag) Time Altitude Azimuth Time Altitude Azimuth Time Altitude Azimuth
SJ 16-02 2.7 22:17:29 10° SE 22:20:43 20° E 22:23:58 10° NE
SKYMED 2 4.5 22:21:06 10° NE 22:24:56 29° E 22:28:43 10° SSE
Cosmos 1939 Rocket 3.3 22:25:58 10° SE 22:29:51 42° ENE 22:33:44 10° N
Cosmos 1943 3.7 22:28:42 10° NNW 22:34:20 67° WSW 22:39:54 10° SSE
Landsat 5 4.3 22:30:34 10° N 22:34:21 48° WNW 22:38:03 10° SSW
Cosmos 1626 3.9 22:33:49 10° SW 22:37:12 33° WNW 22:40:36 10° N
CREW DRAGON DEMO-1 DEB 4.5 22:35:44 10° NNW 22:37:53 19° NNE 22:39:41 12° ENE
Cosmos 1315 Rocket 3.3 22:35:26 10° NNW 22:39:23 67° W 22:43:22 10° S
Cosmos 2058 Rocket 3.4 22:35:43 10° N 22:40:02 43° ENE 22:44:19 10° SSE
Meteor 1-24 Rocket 3.8 22:38:00 10° SSW 22:43:21 75° W 22:48:40 10° N
X-37B 1.0 22:40:59 10° SW 22:44:06 51° SSE 22:46:37 14° E
Cosmos 1844 4.3 22:39:05 10° S 22:44:11 37° ESE 22:49:23 10° NE
CZ-4 R/B 2.4 22:41:26 10° ESE 22:44:46 25° ENE 22:48:04 10° NNE
Cosmos 773 Rocket 4.1 22:40:10 10° NNW 22:45:20 80° WSW 22:50:27 10° SSE
H-2A R/B 2.9 22:43:13 10° ESE 22:47:18 26° ENE 22:51:30 10° N
CZ-2C R/B 3.3 22:46:58 10° SE 22:52:03 51° ENE 22:57:27 10° N
Cosmos 1726 Rocket 3.6 22:47:55 10° N 22:52:18 86° W 22:56:42 10° S
Okean 1-7 Rocket 3.7 22:48:56 10° S 22:53:21 55° E 22:57:51 10° NNE
Nadezhda 4 Rocket 4.1 22:48:16 10° SSE 22:54:17 52° E 23:00:17 10° NNE
MOS 1 Rocket 3.3 22:52:01 10° NNE 22:56:11 47° E 23:00:19 10° S
Cosmos 1626 Rocket 4.2 22:54:51 10° SSE 22:58:44 32° E 23:02:39 10° NNE
COSMOS 2455 3.0 22:54:54 10° SW 23:00:55 78° WNW 23:06:59 10° NNE
Cosmos 1818 3.6 22:55:50 10° SSW 23:01:12 70° ESE 23:06:20 12° NE
Cosmos 1844 Rocket 2.7 22:56:35 10° S 23:02:10 65° ESE 23:07:47 10° NNE
Feng Yun 1-1 Rocket 4.1 22:56:58 10° SSE 23:02:22 78° ENE 23:07:55 10° NNW
CZ-4C R/B 4.3 22:59:46 10° WNW 23:03:22 17° NNW 23:07:24 10° NNE
Iridium 4 Rocket 4.5 22:58:54 10° NNE 23:03:36 27° ENE 23:07:59 10° SE
Meteor 2-13 Rocket 4.5 22:57:59 10° S 23:03:57 60° E 23:09:59 10° NNE
CZ-2D R/B 3.1 23:01:23 10° SSE 23:05:13 71° ENE 23:09:04 10° N
CZ-4 R/B 4.4 23:01:14 10° SSE 23:05:18 62° ENE 23:09:25 10° N
ISS -3.7 23:06:04 10° WSW 23:09:26 74° NNW 23:11:14 25° NE
Cosmos 44 4.0 23:06:17 10° S 23:10:30 34° ESE 23:12:52 22° ENE
COSMO-SKYMED 1 2.6 23:08:48 10° N 23:13:10 83° WNW 23:17:30 10° SSW
Meteor 2-10 Rocket 3.6 23:08:07 10° NNW 23:13:39 84° W 23:18:53 10° S
Aureole 2 Rocket 2.6 23:11:00 10° SSW 23:13:57 59° WNW 23:16:40 13° NNE
Cosmos 2278 Rocket 4.0 23:11:55 10° SE 23:13:16 13° ESE 23:13:16 13° ESE
Meteor 1-21 Rocket 4.1 23:12:56 10° S 23:18:22 62° E 23:23:51 10° NNE
Cosmos 1937 Rocket 4.4 23:15:55 10° SSE 23:20:15 26° E 23:21:03 25° E
USA 234 4.4 23:17:50 18° NE 23:21:14 27° N 23:26:33 10° NW
TELKOM 3 4.3 23:19:57 10° W 23:22:05 29° NNW 23:22:20 28° N
Cosmos 1538 Rocket 4.4 23:18:04 10° NNW 23:23:11 65° WSW 23:28:17 10° S
Cosmos 1689 Rocket 1.9 23:25:19 55° ENE 23:25:37 60° E 23:28:25 10° S
CSL-04 Rocket 4.0 23:21:02 10° SE 23:26:03 41° ENE 23:31:08 10° N
Cosmos 2112 Rocket 4.4 23:22:27 10° N 23:27:23 40° ENE 23:30:19 21° ESE
Okean-O 2.5 23:24:00 10° SSE 23:28:22 68° ENE 23:32:48 10° N
Lacrosse 5 1.8 23:23:33 10° NW 23:28:37 72° NE 23:31:50 22° ESE
Okean O Rocket 4.1 23:25:37 10° SSW 23:29:16 25° W 23:32:55 10° NW
ATLAS 5 CENTAUR R/B 4.0 23:27:41 10° WNW 23:30:09 15° NNW 23:32:46 10° N
Cosmos 1455 2.1 23:26:43 10° N 23:30:32 89° WNW 23:34:22 10° S
Cosmos 2026 Rocket 4.1 23:25:19 10° SSE 23:31:06 47° E 23:36:59 10° NNE
Helios 1A Rocket 3.0 23:27:08 10° SSE 23:31:09 53° ENE 23:35:12 10° N
Cosmos 1340 3.1 23:29:26 10° SSE 23:32:34 40° ESE 23:32:34 40° ESE
Aureole 3 2.8 23:33:02 10° N 23:36:24 77° W 23:39:23 10° S
NOSS 2-1 (E) 3.5 23:34:41 10° SSW 23:37:26 39° SE 23:37:26 39° SE
Cosmos 1602 Rocket 3.4 23:34:58 10° S 23:39:13 65° E 23:41:52 23° NNE
ERS-2 2.7 23:38:46 12° N 23:42:05 56° WNW 23:45:38 10° SSW
CZ-4B R/B 3.7 23:39:19 10° NNW 23:42:06 24° WNW 23:44:48 10° SW
Cosmos 1703 3.1 23:38:57 10° S 23:42:49 83° E 23:44:38 30° NNE
YAOGAN 1 2.5 23:38:31 10° SSE 23:42:50 88° WSW 23:47:12 10° NNW
Meteor 2-8 Rocket 4.3 23:46:55 10° N 23:53:01 71° E 23:59:06 10° SSE
